Time,TemperatureF,DewpointF,PressureIn,WindDirection,WindDirectionDegrees,WindSpeedMPH,WindSpeedGustMPH,Humidity,HourlyPrecipIn,Conditions,Clouds,dailyrainin,SoftwareType,DateUTC
2013-02-11 00:01:00,44.0,40.0,30.33,NE,43,0.0,1.0,85,0.00,,,0.00,,2013-02-11 08:01:00,
2013-02-11 00:11:00,44.0,40.0,30.33,NE,43,0.0,1.0,85,0.00,,,0.00,,2013-02-11 08:11:00,
2013-02-11 00:21:00,43.0,39.0,30.33,NE,43,0.0,0.0,85,0.00,,,0.00,,2013-02-11 08:21:00,
2013-02-11 00:31:00,43.0,39.0,30.33,NE,43,0.0,0.0,86,0.00,,,0.00,,2013-02-11 08:31:00,
2013-02-11 00:42:00,43.0,39.0,30.34,NE,43,0.0,0.0,86,0.00,,,0.00,,2013-02-11 08:42:00,
2013-02-11 00:52:00,43.0,39.0,30.34,NE,43,0.0,0.0,86,0.00,,,0.00,,2013-02-11 08:52:00,
2013-02-11 01:01:00,43.0,39.0,30.34,NE,43,0.0,1.0,86,0.00,,,0.00,,2013-02-11 09:01:00,
2013-02-11 01:12:00,43.0,39.0,30.34,NE,43,0.0,1.0,86,0.00,,,0.00,,2013-02-11 09:12:00,
2013-02-11 01:21:00,43.0,39.0,30.33,NE,43,0.0,1.0,87,0.00,,,0.00,,2013-02-11 09:21:00,
2013-02-11 01:31:00,43.0,39.0,30.34,NE,43,0.0,0.0,87,0.00,,,0.00,,2013-02-11 09:31:00,
2013-02-11 01:41:00,43.0,39.0,30.34,NE,43,0.0,0.0,87,0.00,,,0.00,,2013-02-11 09:41:00,
2013-02-11 01:51:00,43.0,39.0,30.33,NE,43,0.0,0.0,87,0.00,,,0.00,,2013-02-11 09:51:00,
2013-02-11 02:01:00,43.0,39.0,30.33,NE,43,0.0,0.0,87,0.00,,,0.00,,2013-02-11 10:01:00,
2013-02-11 02:11:00,43.0,39.0,30.33,NE,43,0.0,0.0,87,0.00,,,0.00,,2013-02-11 10:11:00,
2013-02-11 02:21:00,43.0,39.0,30.34,NE,43,0.0,0.0,87,0.00,,,0.00,,2013-02-11 10:21:00,
2013-02-11 02:31:00,43.0,40.0,30.34,NE,43,0.0,0.0,88,0.00,,,0.00,,2013-02-11 10:31:00,
2013-02-11 02:41:00,43.0,40.0,30.34,NE,43,0.0,0.0,88,0.00,,,0.00,,2013-02-11 10:41:00,
2013-02-11 02:52:00,43.0,40.0,30.34,NE,43,0.0,0.0,88,0.00,,,0.00,,2013-02-11 10:52:00,
2013-02-11 03:01:00,43.0,40.0,30.33,NE,44,0.0,2.0,88,0.00,,,0.00,,2013-02-11 11:01:00,
2013-02-11 03:11:00,43.0,40.0,30.33,NE,44,0.0,2.0,88,0.00,,,0.00,,2013-02-11 11:11:00,
2013-02-11 03:21:00,43.0,40.0,30.33,NE,44,0.0,1.0,88,0.00,,,0.00,,2013-02-11 11:21:00,
2013-02-11 03:32:00,42.0,39.0,30.32,NE,44,0.0,0.0,88,0.00,,,0.00,,2013-02-11 11:32:00,
2013-02-11 03:42:00,42.0,39.0,30.32,NE,44,0.0,0.0,88,0.00,,,0.00,,2013-02-11 11:42:00,
2013-02-11 03:52:00,42.0,39.0,30.32,NE,44,0.0,0.0,88,0.00,,,0.00,,2013-02-11 11:52:00,
2013-02-11 04:02:00,42.0,39.0,30.32,NE,44,0.0,0.0,88,0.00,,,0.00,,2013-02-11 12:02:00,
2013-02-11 04:12:00,42.0,39.0,30.32,NE,44,0.0,0.0,88,0.00,,,0.00,,2013-02-11 12:12:00,
2013-02-11 04:22:00,42.0,39.0,30.32,NE,44,0.0,0.0,88,0.00,,,0.00,,2013-02-11 12:22:00,
2013-02-11 04:31:00,42.0,39.0,30.32,NE,44,0.0,0.0,88,0.00,,,0.00,,2013-02-11 12:31:00,
2013-02-11 04:42:00,42.0,39.0,30.32,NE,44,0.0,1.0,88,0.00,,,0.00,,2013-02-11 12:42:00,
2013-02-11 04:52:00,42.0,39.0,30.32,NE,44,0.0,1.0,88,0.00,,,0.00,,2013-02-11 12:52:00,
2013-02-11 05:01:00,41.0,38.0,30.32,NE,44,1.0,2.0,88,0.00,,,0.00,,2013-02-11 13:01:00,
2013-02-11 05:11:00,41.0,38.0,30.32,NE,44,1.0,2.0,88,0.00,,,0.00,,2013-02-11 13:11:00,
2013-02-11 05:21:00,41.0,38.0,30.32,NE,44,1.0,2.0,88,0.00,,,0.00,,2013-02-11 13:21:00,
2013-02-11 05:32:00,40.0,37.0,30.31,NE,44,2.0,2.0,89,0.00,,,0.00,,2013-02-11 13:32:00,
2013-02-11 05:41:00,40.0,37.0,30.31,NE,44,2.0,2.0,89,0.00,,,0.00,,2013-02-11 13:41:00,
2013-02-11 05:52:00,40.0,37.0,30.32,NE,44,1.0,2.0,89,0.00,,,0.00,,2013-02-11 13:52:00,
2013-02-11 06:01:00,39.0,36.0,30.32,NE,44,2.0,2.0,89,0.00,,,0.00,,2013-02-11 14:01:00,
2013-02-11 06:11:00,39.0,36.0,30.32,NE,44,2.0,2.0,89,0.00,,,0.00,,2013-02-11 14:11:00,
2013-02-11 06:21:00,39.0,36.0,30.32,NE,44,2.0,2.0,89,0.00,,,0.00,,2013-02-11 14:21:00,
2013-02-11 06:32:00,39.0,36.0,30.32,NE,44,1.0,2.0,90,0.00,,,0.00,,2013-02-11 14:32:00,
2013-02-11 06:41:00,39.0,36.0,30.32,NE,44,1.0,2.0,90,0.00,,,0.00,,2013-02-11 14:41:00,
2013-02-11 06:52:00,39.0,36.0,30.32,NE,44,2.0,2.0,90,0.00,,,0.00,,2013-02-11 14:52:00,
2013-02-11 07:01:00,39.0,36.0,30.31,NE,44,2.0,3.0,90,0.00,,,0.00,,2013-02-11 15:01:00,
2013-02-11 07:11:00,39.0,36.0,30.31,NE,44,2.0,3.0,90,0.00,,,0.00,,2013-02-11 15:11:00,
2013-02-11 07:22:00,39.0,36.0,30.31,NE,44,2.0,2.0,90,0.00,,,0.00,,2013-02-11 15:22:00,
2013-02-11 07:31:00,39.0,36.0,30.31,NE,44,1.0,2.0,90,0.00,,,0.00,,2013-02-11 15:31:00,
2013-02-11 07:42:00,39.0,36.0,30.31,NE,44,1.0,2.0,90,0.00,,,0.00,,2013-02-11 15:42:00,
2013-02-11 07:52:00,39.0,36.0,30.31,NE,44,1.0,2.0,90,0.00,,,0.00,,2013-02-11 15:52:00,
2013-02-11 08:01:00,40.0,38.0,30.31,East,81,0.0,1.0,91,0.00,,,0.00,,2013-02-11 16:01:00,
2013-02-11 08:11:00,40.0,38.0,30.31,East,81,0.0,1.0,91,0.00,,,0.00,,2013-02-11 16:11:00,
2013-02-11 08:21:00,41.0,39.0,30.32,SE,134,3.0,6.0,91,0.00,,,0.00,,2013-02-11 16:21:00,
2013-02-11 08:31:00,43.0,41.0,30.32,ESE,121,2.0,5.0,91,0.00,,,0.00,,2013-02-11 16:31:00,
2013-02-11 08:41:00,43.0,41.0,30.32,ESE,123,2.0,5.0,91,0.00,,,0.00,,2013-02-11 16:41:00,
2013-02-11 08:52:00,43.0,41.0,30.32,ESE,123,2.0,5.0,91,0.00,,,0.00,,2013-02-11 16:52:00,
2013-02-11 09:01:00,42.0,39.0,30.32,SE,138,0.0,3.0,90,0.00,,,0.00,,2013-02-11 17:01:00,
2013-02-11 09:11:00,42.0,39.0,30.32,SE,138,0.0,3.0,90,0.00,,,0.00,,2013-02-11 17:11:00,
2013-02-11 09:21:00,43.0,40.0,30.32,SE,132,6.0,10.0,90,0.00,,,0.00,,2013-02-11 17:21:00,
2013-02-11 09:31:00,44.0,41.0,30.32,SSE,151,6.0,9.0,90,0.00,,,0.00,,2013-02-11 17:31:00,
2013-02-11 09:41:00,44.0,41.0,30.32,SSE,151,6.0,9.0,90,0.00,,,0.00,,2013-02-11 17:41:00,
2013-02-11 09:52:00,44.0,41.0,30.33,SE,130,7.0,9.0,90,0.00,,,0.00,,2013-02-11 17:52:00,
2013-02-11 10:01:00,44.0,41.0,30.33,SE,142,8.0,11.0,90,0.00,,,0.00,,2013-02-11 18:01:00,
2013-02-11 10:11:00,44.0,41.0,30.33,SE,142,8.0,11.0,90,0.00,,,0.00,,2013-02-11 18:11:00,
2013-02-11 10:21:00,43.0,40.0,30.33,ESE,123,5.0,9.0,90,0.00,,,0.00,,2013-02-11 18:21:00,
2013-02-11 10:31:00,43.0,40.0,30.33,SE,127,5.0,7.0,90,0.01,,,0.01,,2013-02-11 18:31:00,
2013-02-11 10:41:00,43.0,40.0,30.33,SE,127,5.0,7.0,90,0.01,,,0.01,,2013-02-11 18:41:00,
2013-02-11 10:53:00,44.0,42.0,30.32,SE,139,3.0,6.0,91,0.01,,,0.01,,2013-02-11 18:53:00,
2013-02-11 11:01:00,44.0,41.0,30.33,SE,138,5.0,7.0,90,0.01,,,0.01,,2013-02-11 19:01:00,
2013-02-11 11:11:00,44.0,41.0,30.33,SE,138,5.0,7.0,90,0.01,,,0.01,,2013-02-11 19:11:00,
2013-02-11 11:21:00,44.0,41.0,30.33,SE,135,2.0,5.0,90,0.01,,,0.01,,2013-02-11 19:21:00,
2013-02-11 11:31:00,44.0,41.0,30.33,SSE,157,5.0,8.0,90,0.00,,,0.01,,2013-02-11 19:31:00,
2013-02-11 11:41:00,44.0,41.0,30.33,SSE,157,5.0,8.0,90,0.00,,,0.01,,2013-02-11 19:41:00,
2013-02-11 11:51:00,44.0,41.0,30.33,SSE,160,4.0,7.0,90,0.00,,,0.01,,2013-02-11 19:51:00,
2013-02-11 12:01:00,44.0,41.0,30.33,SE,135,2.0,5.0,90,0.00,,,0.01,,2013-02-11 20:01:00,
2013-02-11 12:11:00,44.0,41.0,30.32,NE,55,2.0,7.0,90,0.00,,,0.01,,2013-02-11 20:11:00,
2013-02-11 12:21:00,44.0,41.0,30.32,NE,55,2.0,7.0,90,0.00,,,0.01,,2013-02-11 20:21:00,
2013-02-11 12:31:00,45.0,42.0,30.32,SE,144,3.0,6.0,90,0.00,,,0.01,,2013-02-11 20:31:00,
2013-02-11 12:41:00,44.0,41.0,30.32,SSE,162,7.0,9.0,89,0.00,,,0.01,,2013-02-11 20:41:00,
2013-02-11 12:52:00,44.0,41.0,30.32,SSE,162,7.0,9.0,89,0.00,,,0.01,,2013-02-11 20:52:00,
2013-02-11 13:01:00,45.0,42.0,30.32,SE,145,3.0,6.0,89,0.00,,,0.01,,2013-02-11 21:01:00,
2013-02-11 13:11:00,45.0,42.0,30.32,SE,124,1.0,5.0,89,0.00,,,0.01,,2013-02-11 21:11:00,
2013-02-11 13:21:00,45.0,42.0,30.32,SE,124,1.0,5.0,89,0.00,,,0.01,,2013-02-11 21:21:00,
2013-02-11 13:31:00,45.0,42.0,30.32,SSE,160,5.0,7.0,89,0.00,,,0.01,,2013-02-11 21:31:00,
2013-02-11 13:41:00,45.0,42.0,30.32,SSE,160,5.0,7.0,89,0.00,,,0.01,,2013-02-11 21:41:00,
2013-02-11 13:52:00,45.0,42.0,30.32,SE,126,2.0,8.0,89,0.00,,,0.01,,2013-02-11 21:52:00,
2013-02-11 14:01:00,45.0,42.0,30.32,ESE,108,5.0,11.0,89,0.00,,,0.01,,2013-02-11 22:01:00,
2013-02-11 14:11:00,45.0,41.0,30.31,SSE,164,5.0,11.0,87,0.00,,,0.01,,2013-02-11 22:11:00,
2013-02-11 14:21:00,45.0,41.0,30.31,SSE,164,5.0,11.0,87,0.00,,,0.01,,2013-02-11 22:21:00,
2013-02-11 14:31:00,45.0,42.0,30.31,SSE,154,8.0,11.0,89,0.00,,,0.01,,2013-02-11 22:31:00,
2013-02-11 14:41:00,45.0,42.0,30.31,SSE,154,8.0,11.0,89,0.00,,,0.01,,2013-02-11 22:41:00,
2013-02-11 14:52:00,44.0,41.0,30.32,SSE,148,8.0,10.0,89,0.00,,,0.01,,2013-02-11 22:52:00,
2013-02-11 15:01:00,44.0,41.0,30.32,SSE,155,7.0,10.0,89,0.00,,,0.01,,2013-02-11 23:01:00,
2013-02-11 15:11:00,44.0,41.0,30.32,SSE,155,7.0,10.0,89,0.00,,,0.01,,2013-02-11 23:11:00,
2013-02-11 15:21:00,44.0,41.0,30.32,SSE,154,5.0,9.0,89,0.00,,,0.01,,2013-02-11 23:21:00,
2013-02-11 15:31:00,44.0,41.0,30.32,SSE,155,4.0,6.0,89,0.00,,,0.01,,2013-02-11 23:31:00,
2013-02-11 15:41:00,44.0,41.0,30.32,SSE,155,4.0,6.0,89,0.00,,,0.01,,2013-02-11 23:41:00,
2013-02-11 15:52:00,45.0,42.0,30.32,SSE,158,2.0,5.0,89,0.00,,,0.01,,2013-02-11 23:52:00,
2013-02-11 16:01:00,45.0,42.0,30.32,SSE,148,3.0,6.0,89,0.00,,,0.01,,2013-02-12 00:01:00,
2013-02-11 16:11:00,45.0,42.0,30.32,SSE,148,3.0,6.0,89,0.00,,,0.01,,2013-02-12 00:11:00,
2013-02-11 16:21:00,45.0,42.0,30.32,SE,141,0.0,6.0,90,0.00,,,0.01,,2013-02-12 00:21:00,
2013-02-11 16:31:00,45.0,42.0,30.32,SE,141,0.0,1.0,90,0.00,,,0.01,,2013-02-12 00:31:00,
2013-02-11 16:41:00,45.0,42.0,30.32,SE,141,0.0,1.0,90,0.00,,,0.01,,2013-02-12 00:41:00,
2013-02-11 16:52:00,45.0,42.0,30.32,SE,141,0.0,1.0,90,0.00,,,0.01,,2013-02-12 00:52:00,
2013-02-11 17:01:00,45.0,42.0,30.32,NW,316,0.0,0.0,90,0.00,,,0.01,,2013-02-12 01:01:00,
2013-02-11 17:11:00,45.0,42.0,30.32,NW,316,0.0,0.0,90,0.00,,,0.01,,2013-02-12 01:11:00,
2013-02-11 17:21:00,45.0,42.0,30.32,SE,124,0.0,2.0,90,0.01,,,0.02,,2013-02-12 01:21:00,
2013-02-11 17:31:00,45.0,42.0,30.32,SSE,159,0.0,0.0,90,0.01,,,0.02,,2013-02-12 01:31:00,
2013-02-11 17:41:00,45.0,42.0,30.32,SSE,159,0.0,0.0,90,0.01,,,0.02,,2013-02-12 01:41:00,
2013-02-11 17:52:00,45.0,42.0,30.33,SSE,159,0.0,1.0,90,0.01,,,0.02,,2013-02-12 01:52:00,
2013-02-11 18:01:00,44.0,41.0,30.32,SSE,159,0.0,0.0,90,0.01,,,0.02,,2013-02-12 02:01:00,
2013-02-11 18:11:00,44.0,41.0,30.32,SSE,159,0.0,0.0,90,0.01,,,0.02,,2013-02-12 02:11:00,
2013-02-11 18:21:00,44.0,41.0,30.32,SSE,159,0.0,0.0,90,0.00,,,0.02,,2013-02-12 02:21:00,
2013-02-11 18:31:00,44.0,41.0,30.32,SSE,159,0.0,0.0,90,0.00,,,0.02,,2013-02-12 02:31:00,
2013-02-11 18:41:00,44.0,41.0,30.32,SSE,159,0.0,0.0,90,0.00,,,0.02,,2013-02-12 02:41:00,
2013-02-11 18:52:00,44.0,42.0,30.32,SSE,159,0.0,2.0,91,0.00,,,0.02,,2013-02-12 02:52:00,
2013-02-11 19:01:00,44.0,42.0,30.32,SE,126,2.0,4.0,91,0.00,,,0.02,,2013-02-12 03:01:00,
2013-02-11 19:11:00,44.0,42.0,30.32,SE,126,2.0,4.0,91,0.00,,,0.02,,2013-02-12 03:11:00,
2013-02-11 19:21:00,45.0,43.0,30.32,SSE,149,1.0,6.0,91,0.00,,,0.02,,2013-02-12 03:21:00,
2013-02-11 19:31:00,45.0,42.0,30.32,SSE,150,1.0,4.0,90,0.00,,,0.02,,2013-02-12 03:31:00,
2013-02-11 19:41:00,45.0,42.0,30.32,SSE,150,1.0,4.0,90,0.00,,,0.02,,2013-02-12 03:41:00,
2013-02-11 19:52:00,45.0,43.0,30.32,SE,145,1.0,4.0,91,0.00,,,0.02,,2013-02-12 03:52:00,
2013-02-11 20:01:00,45.0,42.0,30.32,ESE,119,0.0,6.0,90,0.00,,,0.02,,2013-02-12 04:01:00,
2013-02-11 20:11:00,45.0,42.0,30.32,ESE,119,0.0,6.0,90,0.00,,,0.02,,2013-02-12 04:11:00,
2013-02-11 20:21:00,44.0,41.0,30.31,ESE,119,0.0,1.0,90,0.00,,,0.02,,2013-02-12 04:21:00,
2013-02-11 20:31:00,44.0,41.0,30.31,ESE,119,0.0,2.0,90,0.00,,,0.02,,2013-02-12 04:31:00,
2013-02-11 20:41:00,44.0,41.0,30.31,ESE,119,0.0,2.0,90,0.00,,,0.02,,2013-02-12 04:41:00,
2013-02-11 20:52:00,44.0,42.0,30.32,ESE,118,0.0,1.0,91,0.00,,,0.02,,2013-02-12 04:52:00,
2013-02-11 21:01:00,43.0,41.0,30.32,SW,223,0.0,2.0,91,0.00,,,0.02,,2013-02-12 05:01:00,
2013-02-11 21:11:00,43.0,41.0,30.32,SW,223,0.0,2.0,91,0.00,,,0.02,,2013-02-12 05:11:00,
2013-02-11 21:21:00,43.0,41.0,30.31,WSW,249,0.0,2.0,91,0.00,,,0.02,,2013-02-12 05:21:00,
2013-02-11 21:31:00,43.0,41.0,30.32,WSW,248,0.0,1.0,91,0.00,,,0.02,,2013-02-12 05:31:00,
2013-02-11 21:41:00,43.0,41.0,30.32,WSW,248,0.0,1.0,91,0.00,,,0.02,,2013-02-12 05:41:00,
2013-02-11 21:52:00,43.0,41.0,30.32,ESE,110,0.0,2.0,91,0.00,,,0.02,,2013-02-12 05:52:00,
2013-02-11 22:01:00,43.0,41.0,30.32,SE,136,0.0,0.0,91,0.00,,,0.02,,2013-02-12 06:01:00,
2013-02-11 22:11:00,43.0,41.0,30.33,SE,136,0.0,1.0,91,0.00,,,0.02,,2013-02-12 06:11:00,
2013-02-11 22:21:00,43.0,41.0,30.33,SE,136,0.0,1.0,91,0.00,,,0.02,,2013-02-12 06:21:00,
2013-02-11 22:31:00,43.0,41.0,30.33,SE,136,0.0,0.0,91,0.00,,,0.02,,2013-02-12 06:31:00,
2013-02-11 22:42:00,44.0,42.0,30.32,SE,136,0.0,3.0,92,0.00,,,0.02,,2013-02-12 06:42:00,
2013-02-11 22:52:00,44.0,42.0,30.32,SE,136,0.0,3.0,92,0.00,,,0.02,,2013-02-12 06:52:00,
2013-02-11 23:01:00,44.0,42.0,30.33,SSE,160,1.0,3.0,91,0.00,,,0.02,,2013-02-12 07:01:00,
2013-02-11 23:11:00,44.0,42.0,30.33,SSE,160,1.0,3.0,91,0.00,,,0.02,,2013-02-12 07:11:00,
2013-02-11 23:21:00,45.0,43.0,30.32,ESE,115,0.0,4.0,92,0.00,,,0.02,,2013-02-12 07:21:00,
2013-02-11 23:31:00,44.0,42.0,30.32,SSE,155,1.0,3.0,91,0.00,,,0.02,,2013-02-12 07:31:00,
2013-02-11 23:41:00,44.0,42.0,30.32,SSE,155,1.0,3.0,91,0.00,,,0.02,,2013-02-12 07:41:00,
2013-02-11 23:52:00,44.0,42.0,30.32,SSE,153,0.0,1.0,91,0.00,,,0.02,,2013-02-12 07:52:00,